Location: Pettit
(39.0209°N, 79.7181°W)
Time: 05:15:50
(UTC+00:00)

ISS - Pass Details

Date: 23 April 2026
Orbit: 414 x 424 km, 51.6° (Epoch: 15 May)

Event Time Altitude Azimuth Distance (km) Brightness Sun altitude
Exits shadow 08:56:05 25° 305° (NW) 897 -2.3 -17.5°
Maximum altitude 08:56:56 28° 332° (NNW) 824 -2.3 -17.4°
Drops below altitude 10° 08:59:53 10° 33° (NNE) 1,503 0.1 -16.9°
Sets 09:02:12 0° 45° (NE) 2,372 1.7 -16.5°
